| time (UTC) | temp C | wind direction | speed KPH | gust KPH | rain 1hr cm | rain 24hr cm | rain mn cm | humidity % | barometer mb |
| 20260906124556 | 22 | 0 | 0.0 | 1.6 | 0.00 | 1.09 | 0.00 | 94 | 1013.8 |
| 20260906123135 | 22 | 0 | 0.0 | 0.0 | 0.00 | 1.09 | 0.00 | 94 | 1013.7 |
| 20260906121555 | 21 | 0 | 0.0 | 1.6 | 0.00 | 1.09 | 0.00 | 94 | 1013.6 |
| 20260906120055 | 21 | 0 | 0.0 | 1.6 | 0.00 | 1.09 | 0.00 | 93 | 1013.5 |
| 20260906114601 | 21 | 0 | 0.0 | 1.6 | 0.00 | 1.09 | 0.00 | 93 | 1013.6 |
| 20260906113101 | 21 | 0 | 0.0 | 0.0 | 0.00 | 1.09 | 0.00 | 93 | 1013.6 |
| 20260906111559 | 21 | 0 | 0.0 | 0.0 | 0.00 | 1.09 | 0.00 | 93 | 1013.4 |
| 20260906110105 | 21 | 0 | 0.0 | 0.0 | 0.00 | 1.09 | 0.00 | 93 | 1013.3 |
| 20260906104557 | 21 | 0 | 0.0 | 1.6 | 0.00 | 1.09 | 0.00 | 93 | 1013.4 |
| 20260906103057 | 21 | 0 | 0.0 | 0.0 | 0.00 | 1.09 | 0.00 | 93 | 1013.0 |
| 20260906101604 | 21 | 0 | 0.0 | 0.0 | 0.00 | 1.09 | 0.00 | 93 | 1013.0 |
| 20260906100101 | 21 | 0 | 0.0 | 0.0 | 0.00 | 1.09 | 0.00 | 93 | 1012.9 |
| 20260906094608 | 21 | 0 | 0.0 | 0.0 | 0.00 | 1.09 | 0.00 | 93 | 1013.0 |
| 20260906093058 | 21 | 0 | 0.0 | 0.0 | 0.00 | 1.09 | 0.00 | 93 | 1013.2 |
| 20260906091603 | 21 | 0 | 0.0 | 0.0 | 0.00 | 1.09 | 0.00 | 93 | 1013.2 |
| 20260906084606 | 21 | 0 | 0.0 | 0.0 | 0.00 | 1.09 | 0.00 | 93 | 1013.0 |
| 20260906083105 | 21 | 0 | 0.0 | 0.0 | 0.00 | 1.09 | 0.00 | 93 | 1012.9 |
| 20260906081604 | 21 | 0 | 0.0 | 0.0 | 0.00 | 1.09 | 0.00 | 93 | 1012.8 |
| 20260906080103 | 21 | 0 | 0.0 | 0.0 | 0.00 | 1.09 | 0.00 | 93 | 1012.9 |
| 20260906074606 | 21 | 0 | 0.0 | 1.6 | 0.00 | 1.09 | 0.00 | 93 | 1012.8 |
| 20260906073055 | 21 | 0 | 0.0 | 0.0 | 0.00 | 1.09 | 0.00 | 92 | 1012.9 |
| 20260906071556 | 21 | 0 | 0.0 | 1.6 | 0.00 | 1.09 | 0.00 | 92 | 1012.8 |
| 20260906070103 | 21 | 0 | 0.0 | 1.6 | 0.00 | 1.09 | 0.00 | 92 | 1013.0 |
| 20260906064559 | 21 | 0 | 0.0 | 0.0 | 0.00 | 1.09 | 0.00 | 93 | 1013.3 |
| 20260906063101 | 21 | 0 | 0.0 | 1.6 | 0.00 | 1.09 | 0.00 | 92 | 1013.3 |
| 20260906061600 | 21 | 0 | 0.0 | 1.6 | 0.00 | 1.09 | 0.00 | 92 | 1013.2 |
| 20260906060104 | 21 | 0 | 0.0 | 1.6 | 0.00 | 1.09 | 0.00 | 92 | 1013.4 |
| 20260906054601 | 21 | 0 | 0.0 | 0.0 | 0.00 | 1.09 | 0.00 | 92 | 1013.6 |
| 20260906053106 | 21 | 0 | 0.0 | 0.0 | 0.00 | 1.09 | 0.00 | 92 | 1013.6 |
| 20260906051559 | 21 | 0 | 0.0 | 1.6 | 0.00 | 1.09 | 0.00 | 92 | 1013.9 |
| 20260906050059 | 21 | 0 | 0.0 | 0.0 | 0.00 | 1.09 | 0.00 | 92 | 1014.1 |
| 20260906044556 | 21 | 0 | 0.0 | 1.6 | 0.00 | 1.09 | 0.00 | 92 | 1014.3 |
| 20260906043102 | 21 | 0 | 1.6 | 4.8 | 0.00 | 1.09 | 0.00 | 92 | 1014.0 |
| 20260906041600 | 21 | 0 | 0.0 | 1.6 | 0.00 | 1.09 | 0.00 | 92 | 1013.6 |
| 20260906040056 | 21 | 0 | 0.0 | 1.6 | 0.00 | 1.09 | 0.00 | 92 | 1013.3 |
| 20260906034601 | 21 | 0 | 0.0 | 1.6 | 0.00 | 1.09 | 1.09 | 92 | 1013.4 |
| 20260906033110 | 21 | 352 | 0.0 | 1.6 | 0.00 | 1.09 | 1.09 | 91 | 1013.1 |
| 20260906031553 | 21 | 0 | 0.0 | 1.6 | 0.00 | 1.09 | 1.09 | 91 | 1013.3 |
| 20260906030054 | 21 | 0 | 0.0 | 3.2 | 0.00 | 1.09 | 1.09 | 91 | 1013.5 |
| 20260906024556 | 21 | 352 | 1.6 | 3.2 | 0.00 | 1.09 | 1.09 | 91 | 1013.7 |
| 20260906023100 | 21 | 352 | 1.6 | 3.2 | 0.00 | 1.09 | 1.09 | 90 | 1013.8 |
| 20260906021606 | 21 | 0 | 0.0 | 1.6 | 0.00 | 1.09 | 1.09 | 90 | 1013.9 |
| 20260906020107 | 21 | 0 | 0.0 | 3.2 | 0.03 | 1.09 | 1.09 | 89 | 1014.1 |
| 20260906014602 | 21 | 311 | 0.0 | 3.2 | 0.23 | 1.09 | 1.09 | 89 | 1014.0 |
| 20260906013109 | 22 | 0 | 0.0 | 4.8 | 0.86 | 1.09 | 1.09 | 88 | 1014.1 |
| 20260906011609 | 22 | 344 | 1.6 | 6.4 | 1.09 | 1.09 | 1.09 | 87 | 1013.9 |
| 20260906010107 | 22 | 144 | 1.6 | 11.3 | 1.07 | 1.07 | 1.07 | 85 | 1013.2 |
| 20260906004611 | 24 | 203 | 1.6 | 4.8 | 0.86 | 0.86 | 0.86 | 82 | 1014.4 |
| 20260906003106 | 27 | 25 | 1.6 | 9.7 | 0.23 | 0.23 | 0.23 | 75 | 1014.6 |
| 20260906001553 | 29 | 338 | 1.6 | 12.9 | 0.00 | 0.00 | 0.00 | 65 | 1014.0 |
| 20260906000100 | 30 | 219 | 1.6 | 4.8 | 0.00 | 0.00 | 0.00 | 69 | 1013.5 |
| 20260905234559 | 30 | 203 | 0.0 | 4.8 | 0.00 | 0.00 | 0.00 | 67 | 1012.4 |
| 20260905233056 | 31 | 0 | 0.0 | 6.4 | 0.00 | 0.00 | 0.00 | 66 | 1011.8 |
| 20260905231553 | 31 | 199 | 1.6 | 6.4 | 0.00 | 0.00 | 0.00 | 64 | 1012.1 |
| 20260905230058 | 31 | 220 | 0.0 | 4.8 | 0.00 | 0.00 | 0.00 | 65 | 1012.4 |
| 20260905224603 | 31 | 220 | 0.0 | 8.0 | 0.00 | 0.00 | 0.00 | 65 | 1012.2 |
| 20260905223053 | 32 | 178 | 6.4 | 16.1 | 0.00 | 0.00 | 0.00 | 64 | 1012.2 |
| 20260905221556 | 32 | 119 | 1.6 | 12.9 | 0.00 | 0.00 | 0.00 | 62 | 1011.9 |
| 20260905220100 | 33 | 238 | 4.8 | 12.9 | 0.00 | 0.00 | 0.00 | 60 | 1011.8 |
| 20260905214603 | 34 | 250 | 1.6 | 11.3 | 0.00 | 0.00 | 0.00 | 57 | 1011.8 |
| 20260905213107 | 35 | 171 | 1.6 | 9.7 | 0.00 | 0.00 | 0.00 | 55 | 1012.0 |
| 20260905211559 | 35 | 0 | 1.6 | 14.5 | 0.00 | 0.00 | 0.00 | 56 | 1011.8 |
| 20260905210110 | 36 | 191 | 8.0 | 16.1 | 0.00 | 0.00 | 0.00 | 53 | 1011.8 |
| 20260905204603 | 36 | 156 | 3.2 | 12.9 | 0.00 | 0.00 | 0.00 | 49 | 1011.9 |
| 20260905203102 | 36 | 0 | 1.6 | 8.0 | 0.00 | 0.00 | 0.00 | 45 | 1011.9 |
| 20260905201556 | 35 | 198 | 3.2 | 14.5 | 0.00 | 0.00 | 0.00 | 48 | 1012.1 |
| 20260905200114 | 35 | 180 | 6.4 | 19.3 | 0.00 | 0.00 | 0.00 | 49 | 1012.4 |
| 20260905194609 | 36 | 192 | 9.7 | 17.7 | 0.00 | 0.00 | 0.00 | 46 | 1012.8 |
| 20260905193057 | 37 | 133 | 1.6 | 8.0 | 0.00 | 0.00 | 0.00 | 39 | 1013.1 |
| 20260905191559 | 37 | 188 | 1.6 | 9.7 | 0.00 | 0.00 | 0.00 | 38 | 1013.4 |
| 20260905190114 | 38 | 0 | 0.0 | 6.4 | 0.00 | 0.00 | 0.00 | 39 | 1013.2 |
| 20260905184623 | 36 | 78 | 3.2 | 8.0 | 0.00 | 0.00 | 0.00 | 40 | 1013.2 |
| 20260905183101 | 36 | 102 | 1.6 | 9.7 | 0.00 | 0.00 | 0.00 | 42 | 1013.5 |
| 20260905181603 | 36 | 5 | 0.0 | 6.4 | 0.00 | 0.00 | 0.00 | 44 | 1013.8 |
| 20260905180105 | 35 | 32 | 1.6 | 11.3 | 0.00 | 0.00 | 0.00 | 46 | 1013.9 |
| 20260905174600 | 35 | 100 | 1.6 | 8.0 | 0.00 | 0.00 | 0.00 | 43 | 1014.0 |
| 20260905173104 | 36 | 5 | 0.0 | 6.4 | 0.00 | 0.00 | 0.00 | 47 | 1014.1 |
| 20260905171624 | 35 | 0 | 1.6 | 8.0 | 0.00 | 0.00 | 0.00 | 49 | 1014.5 |
| 20260905170106 | 35 | 142 | 1.6 | 11.3 | 0.00 | 0.00 | 0.00 | 48 | 1014.6 |
| 20260905164557 | 34 | 0 | 0.0 | 8.0 | 0.00 | 0.00 | 0.00 | 50 | 1015.0 |
| 20260905163114 | 33 | 13 | 3.2 | 8.0 | 0.00 | 0.00 | 0.00 | 50 | 1015.1 |
| 20260905161602 | 33 | 347 | 4.8 | 9.7 | 0.00 | 0.00 | 0.00 | 52 | 1015.3 |
| 20260905160105 | 35 | 105 | 1.6 | 6.4 | 0.00 | 0.00 | 0.00 | 49 | 1015.1 |
| 20260905154615 | 33 | 205 | 0.0 | 6.4 | 0.00 | 0.00 | 0.00 | 54 | 1015.2 |
| 20260905153113 | 33 | 70 | 1.6 | 6.4 | 0.00 | 0.00 | 0.00 | 54 | 1015.3 |
| 20260905151614 | 33 | 0 | 0.0 | 4.8 | 0.00 | 0.00 | 0.00 | 56 | 1015.5 |
| 20260905150058 | 32 | 0 | 0.0 | 4.8 | 0.00 | 0.00 | 0.00 | 61 | 1015.5 |
| 20260905144603 | 31 | 0 | 3.2 | 6.4 | 0.00 | 0.00 | 0.00 | 62 | 1015.7 |
| 20260905143104 | 30 | 0 | 0.0 | 3.2 | 0.00 | 0.00 | 0.00 | 69 | 1015.8 |
| 20260905141601 | 29 | 5 | 0.0 | 3.2 | 0.00 | 0.00 | 0.00 | 73 | 1015.8 |
| 20260905134559 | 26 | 0 | 0.0 | 3.2 | 0.00 | 0.00 | 0.00 | 85 | 1015.9 |
| 20260905133055 | 25 | 0 | 0.0 | 3.2 | 0.00 | 0.00 | 0.00 | 90 | 1015.8 |
| 20260905131605 | 23 | 342 | 0.0 | 3.2 | 0.00 | 0.00 | 0.00 | 92 | 1016.0 |
| 20260905130054 | 23 | 0 | 0.0 | 3.2 | 0.00 | 0.00 | 0.00 | 92 | 1016.0 |